Погода в Мадикери

Индия     12°25′20″N   75°44′27″E
темп.,
°C
ветер,
м/с
пор.,
м/с
влажн.,
%
обл.,
%
осадки,
мм/ч
давл.,
гПа
погр.,
м
20 июня, вс
вс2023:30+19зюз1395100 2.9 1015123
02:30+19ююз1297100 0.5 101371
05:30+18зюз1398100 0.9 101396
08:30+21зюз2686100 0.5 1014588
11:30+24з477597 1.6 1014951
14:30+23з3781100 2.0 1012825
17:30+21з259390 3.7 1013423
20:30+19з1498100 0.5 1015252
21 июня, пн
пн2123:30+19зюз139897 0.6 1015149
02:30+19зюз139972 0.2 1013156
05:30+19зюз1398100 0.6 1013151
08:30+21з2486100 0.6 1014515
11:30+24зсз3674100 1.4 1014942
14:30+24зсз367386 1.3 1012987
17:30+21з2493100 1.9 1012337
20:30+20зсз149795 0.1 1013250
22 июня, вт
вт2223:30+20зсз149860 0.2 1013209
02:30+19з249885 0.1 1011230
05:30+19з1397100 0.1 1012219
08:30+21зсз248844 0.1 1014471
11:30+25зсз3467100 0.1 1013958
14:30+25зсз346576 0.3 10111217
17:30+23зсз357970 0.4 1012690
20:30+20зсз259786 0.1 1013310
23 июня, ср
ср2323:30+20зсз2595100 0.3 1013295
02:30+19зсз2596100 0.1 1011263
05:30+19зсз2496100 0.1 1012245
08:30+21зсз2588100 0.1 1013421
11:30+24зсз2472100 0.6 1013814
14:30+25зсз3369100 1.2 10111079
17:30+22зсз2585100 1.9 1011551
20:30+20з2496100 0.6 1014285
24 июня, чт
чт2423:30+20з259693 0.7 1014305
02:30+19з259780 0.1 1012286
05:30+19з2596100 0.1 1012290
08:30+21зсз258595 0.0 1013480
11:30+24з367267 0.1 1013808
14:30+25зсз466496 0.2 10111166
17:30+20з269399 0.6 1012426
20:30+20з2594100 0.2 1014345